CAPE
85 123 104 92 96 68 43 79 84 113 109 104 86 80 69 67 81 91 9 0 3 0 0 0 0 1 0 0 0 0 0 2 1 0 5 1 0 0 0 0 0 0 0 0 0 0 0 0 0 0 0 0 0 0
37 115 125 111 102 85 52 103 136 139 116 125 123 82 85 87 69 154 0 0 0 0 1 0 0 0 0 0 0 0 0 0 0 0 2 2 2 0 0 0 0 0 0 0 0 0 0 0 0 0 0 0 0 0
45 111 122 118 84 97 66 115 127 117 121 112 121 89 98 115 105 115 0 0 0 0 2 5 2 0 0 0 0 1 0 0 0 0 0 0 0 0 0 0 0 0 0 0 0 0 0 0 0 0 0 0 0 0
64 87 93 108 121 104 101 91 109 125 127 125 110 120 99 95 114 5 0 0 0 1 1 1 0 0 0 0 0 0 0 0 0 0 1 2 2 0 0 0 0 0 0 0 0 0 0 0 0 0 0 0 0 0
82 57 100 103 99 94 95 33 54 109 113 127 92 96 100 91 1 0 2 7 1 0 0 1 0 0 0 0 0 0 1 1 3 0 2 1 0 0 0 0 0 0 0 0 0 0 0 0 0 0 0 0 0 0
64 68 57 19 55 21 14 10 31 76 92 56 70 119 26 11 0 0 4 8 0 0 1 1 0 0 0 0 0 0 0 0 0 6 4 0 0 0 0 0 0 0 0 0 0 0 0 0 0 0 0 0 0 0
51 35 19 24 40 139 139 120 42 36 57 76 16 35 19 3 0 1 0 0 0 1 1 2 3 0 0 0 0 0 0 0 0 0 0 0 0 0 2 0 0 0 0 0 0 0 0 0 0 0 0 0 0 0
20 31 30 21 16 21 15 15 20 31 36 49 41 26 15 5 1 0 0 0 0 3 8 4 1 0 0 1 0 0 0 0 0 0 0 0 0 0 0 0 0 0 0 0 0 0 0 0 0 0 0 0 0 0
34 22 29 34 34 37 40 42 44 35 32 24 12 5 0 0 4 2 0 0 0 0 2 0 0 0 0 0 0 0 0 0 0 0 0 0 0 0 0 0 0 0 0 0 0 0 0 0 0 0 0 0 0 0
31 31 46 50 39 29 27 26 26 20 13 8 0 0 0 0 0 0 0 0 0 0 0 0 0 0 0 0 0 0 0 0 0 0 0 0 0 0 0 0 0 0 0 0 0 0 0 0 0 0 0 0 0 0
35 46 52 30 35 44 29 21 16 5 0 0 0 2 0 0 0 0 0 0 0 0 0 0 0 0 0 0 0 0 0 0 0 0 0 0 0 0 0 0 0 0 0 0 0 0 0 0 0 0 0 0 0 0
66 66 56 26 17 5 0 0 0 0 0 0 0 0 0 0 0 0 0 0 0 0 0 0 0 0 0 0 0 0 0 0 0 0 0 0 0 0 0 0 0 0 0 0 0 0 0 0 0 0 0 0 0 0
64 51 23 16 2 0 0 0 0 0 0 0 0 0 0 0 0 0 0 0 0 0 0 0 0 0 0 0 0 0 0 0 0 0 0 0 0 0 0 0 0 0 0 0 0 0 0 0 0 0 0 0 0 0
53 28 9 4 0 0 0 0 0 0 0 0 0 0 0 0 0 0 0 0 0 0 0 0 0 0 0 0 0 0 0 0 0 0 0 0 0 0 0 0 0 0 0 0 0 0 0 0 0 0 0 0 0 0
22 7 2 0 0 0 0 0 0 0 0 0 0 0 0 0 0 0 0 0 0 0 0 0 0 0 0 0 0 0 0 0 0 0 0 0 0 0 0 0 0 0 0 0 0 0 0 0 0 0 0 0 0 0
5 1 1 0 0 0 0 0 0 0 0 0 0 0 0 0 0 0 0 0 0 0 0 0 0 0 0 0 0 0 0 0 0 0 0 0 0 0 0 0 0 0 0 0 0 0 0 0 0 0 0 0 0 0
0 7 0 0 0 0 0 0 0 0 0 0 0 0 0 0 0 0 0 0 0 0 0 0 0 0 0 0 0 0 0 0 0 0 0 0 0 0 0 0 0 0 0 0 0 0 0 0 0 0 0 0 0 0
2 0 0 0 0 0 0 0 0 0 0 0 1 1 1 0 0 0 0 1 0 0 0 0 0 0 0 0 0 0 0 0 0 0 0 0 0 0 0 0 0 0 0 0 0 0 0 0 0 0 0 0 0 0
0 0 0 0 0 0 0 0 0 0 0 4 0 0 0 0 0 0 1 0 0 0 0 0 0 0 0 0 0 0 0 0 0 0 0 0 0 0 0 0 0 0 0 0 0 0 0 0 0 0 0 1 0 0
0 0 0 0 0 0 0 0 0 0 0 0 0 0 0 0 0 0 0 0 0 0 0 0 0 0 0 0 0 0 0 0 0 0 0 0 0 0 0 0 0 0 0 0 0 2 0 0 0 3 1 1 1 0
0 0 0 0 0 0 0 0 0 0 0 0 0 0 0 0 0 0 0 0 0 0 0 0 0 0 0 0 0 0 0 0 0 0 0 0 0 0 0 0 0 0 0 0 0 0 0 0 0 1 0 0 0 0
0 0 0 0 0 0 0 0 0 0 0 0 0 0 0 0 0 0 0 0 0 0 0 0 0 0 0 0 0 0 0 0 0 0 4 0 0 0 0 0 0 0 0 0 0 0 0 0 0 0 0 0 0 0
0 0 0 0 0 0 0 0 0 0 0 0 0 0 0 0 0 0 0 0 0 0 0 0 0 0 0 0 0 0 0 0 0 0 0 0 0 0 0 0 0 0 0 0 0 0 0 3 2 0 0 0 0 0
0 0 0 0 0 0 0 0 0 0 0 0 0 0 0 0 0 0 0 0 0 0 0 0 0 0 0 0 0 0 0 0 0 0 0 0 0 0 0 0 0 0 0 0 0 0 0 0 0 0 0 0 0 0
0 0 0 0 0 0 0 0 0 0 0 0 0 0 0 0 0 0 0 0 0 0 0 0 0 0 0 0 0 0 0 0 0 0 0 0 0 0 0 0 0 0 0 0 0 0 0 0 0 0 0 0 0 0
0 0 0 0 0 0 0 0 0 0 0 0 0 0 0 0 0 0 0 0 0 0 0 0 0 0 0 0 0 0 0 0 0 0 0 0 0 0 0 0 0 0 0 0 0 0 0 0 0 0 0 1 10 0
0 0 0 0 0 0 0 0 0 0 0 0 0 0 0 0 0 0 0 0 0 0 0 0 0 0 0 0 0 0 0 0 0 0 0 0 0 0 0 0 0 0 0 0 0 0 0 0 0 0 0 0 0 0
0 0 0 0 0 0 0 0 0 0 0 0 0 0 0 0 0 0 0 0 0 0 0 0 0 0 0 0 0 0 0 0 0 0 0 0 0 0 0 0 0 4 0 0 0 0 0 0 0 0 0 0 0 0
0 0 0 0 0 0 0 0 0 0 0 0 0 0 0 0 0 0 0 0 0 0 0 0 0 0 0 0 0 0 0 0 0 0 0 0 0 0 0 0 0 0 0 0 4 1 0 0 0 0 0 0 0 0
0 0 0 0 0 0 0 0 0 0 0 0 0 0 0 0 0 0 0 0 0 0 0 0 0 0 0 0 0 0 0 0 0 0 0 0 0 0 0 0 0 0 0 0 0 0 14 0 2 0 0 0 0 0
0 0 0 0 0 0 0 0 0 0 0 0 0 0 0 0 0 0 0 0 0 0 0 0 0 0 0 0 0 0 0 0 0 0 0 0 0 0 0 0 0 0 0 0 0 0 0 0 0 0 0 0 0 0
0 0 0 0 0 0 0 0 0 0 0 0 0 0 0 0 0 0 0 0 0 0 0 0 0 0 0 0 0 0 2 0 0 0 0 0 0 0 0 0 0 0 0 0 0 0 0 0 0 0 0 0 0 0
0 0 0 0 0 0 0 0 0 0 0 0 0 0 0 0 0 0 0 0 0 0 0 0 0 0 0 0 0 0 1 0 3 13 13 8 7 1 0 0 0 0 0 0 0 0 0 0 0 0 0 0 0 0
CIN
-0 -0 -0 -0 -0 -0 -0 -0 -0 -0 -0 -0 -0 -0 -0 -0 -30 -11 -7 -0 -16 -0 -0 -0 -0 -0 -0 -0 -0 -0 -0 -0 -0 -0 -0 -0 -0 -0 -0 -0 -0 -0 -0 -0 -0 -0 -0 -0 -0 -0 -0 -0 -0 -0
-0 -0 -0 -0 -0 -0 -0 -0 -0 -0 -0 -0 -0 -1 -0 -5 -20 -3 -0 -0 -0 -0 -0 -0 -0 -0 -0 -0 -0 -0 -0 -0 -0 -0 -0 -0 -0 -0 -0 -0 -0 -0 -0 -0 -0 -0 -0 -0 -0 -0 -0 -0 -0 -0
-0 -0 -0 -0 -0 -0 -0 -0 -0 -0 -0 -0 -0 -0 -0 -4 -4 -2 -0 -0 -0 -0 -0 -0 -0 -0 -0 -0 -0 -0 -0 -0 -0 -0 -0 -0 -0 -0 -0 -0 -0 -0 -0 -0 -0 -0 -0 -0 -0 -0 -0 -0 -0 -0
-0 -0 -0 -0 -0 -0 -0 -0 -0 -0 -0 -19 -12 -8 -0 -0 -2 -0 -0 -0 -0 -0 -0 -0 -0 -0 -0 -0 -0 -0 -0 -0 -0 -0 -0 -0 -0 -0 -0 -0 -0 -0 -0 -0 -0 -0 -0 -0 -0 -0 -0 -0 -0 -0
-0 -0 -0 -0 -0 -11 -36 -1 -2 -27 -18 -7 -16 -5 -5 -2 -0 -0 -0 -0 -0 -0 -0 -0 -0 -0 -0 -0 -0 -0 -0 -0 -0 -0 -0 -0 -0 -0 -0 -0 -0 -0 -0 -0 -0 -0 -0 -0 -0 -0 -0 -0 -0 -0
-0 -0 -0 -0 -0 -3 -0 -0 -83 -37 -23 -36 -3 -5 -4 -0 -0 -0 -0 -0 -0 -0 -0 -0 -0 -0 -0 -0 -0 -0 -0 -0 -0 -0 -0 -0 -0 -0 -0 -0 -0 -0 -0 -0 -0 -0 -0 -0 -0 -0 -0 -0 -0 -0
-0 -0 -0 -0 -2 -61 -48 -26 -44 -10 -4 -0 -0 -0 -0 -0 -0 -0 -0 -0 -0 -1 -0 -0 -0 -0 -0 -0 -0 -0 -0 -0 -0 -0 -0 -0 -0 -0 -0 -0 -0 -0 -0 -0 -0 -0 -0 -0 -0 -0 -0 -0 -0 -0
-0 -0 -0 -2 -5 -25 -44 -0 -0 -0 -0 -0 -0 -0 -0 -0 -0 -0 -0 -0 -0 -3 -0 -0 -0 -0 -0 -1 -0 -0 -0 -0 -0 -0 -0 -0 -0 -0 -0 -0 -0 -0 -0 -0 -0 -0 -0 -0 -0 -0 -0 -0 -0 -0
-0 -0 -0 -0 -0 -0 -0 -0 -0 -0 -0 -0 -0 -0 -0 -0 -0 -0 -0 -0 -0 -0 -0 -0 -0 -0 -0 -0 -0 -0 -0 -0 -0 -0 -0 -0 -0 -0 -0 -0 -0 -0 -0 -0 -0 -0 -0 -0 -0 -0 -0 -0 -0 -0
-0 -0 -0 -0 -0 -0 -0 -0 -0 -0 -0 -0 -0 -0 -0 -0 -0 -0 -0 -0 -0 -0 -0 -0 -0 -0 -0 -0 -0 -0 -0 -0 -0 -0 -0 -0 -0 -0 -0 -0 -0 -0 -0 -0 -0 -0 -0 -0 -0 -0 -0 -0 -0 -0
-0 -0 -0 -1 -0 -0 -0 -0 -0 -0 -0 -0 -0 -0 -0 -0 -0 -0 -0 -0 -0 -0 -0 -0 -0 -0 -0 -0 -0 -0 -0 -0 -0 -0 -0 -0 -0 -0 -0 -0 -0 -0 -0 -0 -0 -0 -0 -0 -0 -0 -0 -0 -0 -0
-0 -0 -0 -0 -0 -0 -0 -0 -0 -0 -0 -0 -0 -0 -0 -0 -0 -0 -0 -0 -0 -0 -0 -0 -0 -0 -0 -0 -0 -0 -0 -0 -0 -0 -0 -0 -0 -0 -0 -0 -0 -0 -0 -0 -0 -0 -0 -0 -0 -0 -0 -0 -0 -0
-0 -0 -0 -0 -0 -0 -0 -0 -0 -0 -0 -0 -0 -0 -0 -0 -0 -0 -0 -0 -0 -0 -0 -0 -0 -0 -0 -0 -0 -0 -0 -0 -0 -1 -0 -0 -0 -0 -0 -0 -0 -0 -0 -0 -0 -0 -0 -0 -0 -0 -0 -0 -0 -0
-0 -0 -0 -0 -0 -0 -0 -0 -0 -0 -0 -0 -0 -0 -0 -0 -0 -0 -0 -0 -0 -0 -0 -0 -0 -0 -0 -0 -0 -0 -0 -0 -0 -0 -0 -0 -0 -0 -0 -0 -0 -0 -0 -0 -0 -0 -0 -0 -0 -0 -0 -0 -0 -0
-0 -0 -0 -0 -0 -0 -0 -0 -0 -0 -0 -0 -0 -0 -0 -0 -0 -0 -0 -0 -0 -0 -0 -0 -0 -0 -0 -0 -0 -0 -0 -0 -0 -0 -0 -0 -0 -0 -0 -0 -0 -0 -0 -0 -0 -0 -0 -0 -0 -0 -0 -0 -0 -0
-0 -0 -1 -0 -0 -0 -0 -0 -0 -0 -0 -0 -0 -0 -0 -0 -0 -0 -2 -0 -0 -0 -0 -0 -0 -0 -0 -0 -0 -0 -0 -0 -0 -0 -0 -0 -0 -0 -0 -0 -0 -0 -0 -0 -0 -0 -0 -0 -0 -0 -0 -0 -0 -0
-0 -0 -0 -0 -0 -0 -0 -0 -0 -0 -0 -0 -0 -0 -0 -0 -0 -0 -0 -0 -0 -0 -0 -0 -0 -0 -0 -0 -0 -0 -0 -0 -0 -0 -0 -0 -0 -0 -0 -0 -0 -0 -0 -0 -0 -0 -0 -0 -0 -0 -0 -0 -0 -0
-1 -0 -0 -0 -0 -0 -0 -0 -0 -0 -0 -0 -0 -0 -1 -0 -0 -0 -0 -0 -0 -0 -0 -0 -0 -0 -0 -0 -0 -0 -0 -0 -0 -0 -0 -0 -0 -0 -0 -0 -0 -0 -0 -0 -0 -0 -0 -0 -0 -0 -0 -0 -0 -0
-0 -0 -0 -0 -0 -0 -0 -0 -0 -0 -0 -2 -0 -1 -0 -0 -1 -0 -0 -0 -0 -0 -0 -0 -0 -0 -0 -0 -0 -0 -0 -0 -0 -0 -0 -0 -0 -0 -0 -0 -0 -0 -0 -0 -0 -0 -0 -0 -0 -0 -0 -0 -0 -0
-0 -0 -0 -0 -0 -0 -0 -0 -0 -0 -0 -0 -0 -0 -0 -0 -0 -0 -0 -0 -0 -0 -0 -0 -0 -0 -0 -0 -0 -0 -0 -0 -0 -0 -0 -0 -0 -0 -0 -0 -0 -0 -0 -0 -0 -0 -0 -0 -0 -0 -0 -1 -1 -0
-0 -0 -0 -0 -0 -0 -0 -0 -0 -0 -0 -0 -0 -0 -0 -0 -0 -0 -0 -0 -0 -0 -0 -0 -0 -0 -0 -0 -0 -0 -0 -0 -0 -0 -0 -0 -0 -0 -0 -0 -0 -0 -1 -0 -0 -0 -0 -0 -0 -1 -0 -1 -1 -0
-0 -0 -0 -0 -0 -0 -0 -0 -0 -0 -0 -0 -0 -0 -0 -0 -0 -0 -0 -0 -0 -0 -0 -0 -0 -0 -0 -0 -0 -0 -0 -0 -0 -0 -0 -0 -0 -0 -0 -0 -0 -0 -0 -0 -0 -0 -0 -0 -0 -0 -0 -0 -0 -0
-0 -0 -0 -0 -0 -0 -0 -0 -0 -0 -0 -0 -0 -0 -0 -0 -0 -0 -0 -0 -0 -0 -0 -0 -0 -0 -0 -0 -0 -0 -0 -0 -0 -0 -0 -0 -0 -0 -0 -0 -0 -0 -0 -0 -0 -0 -0 -0 -0 -0 -0 -0 -0 -0
-0 -0 -0 -0 -0 -0 -0 -0 -0 -0 -0 -0 -0 -0 -0 -0 -0 -0 -0 -0 -0 -0 -0 -0 -0 -0 -0 -0 -0 -0 -0 -0 -0 -0 -0 -0 -0 -0 -0 -0 -0 -0 -0 -0 -0 -0 -0 -0 -0 -0 -0 -0 -0 -0
-0 -0 -0 -0 -0 -0 -0 -0 -0 -0 -0 -0 -0 -0 -0 -0 -0 -0 -0 -0 -0 -0 -0 -0 -0 -0 -0 -0 -0 -0 -0 -0 -0 -0 -0 -0 -0 -0 -0 -0 -0 -0 -0 -0 -0 -0 -0 -0 -0 -0 -0 -0 -0 -0
-0 -0 -0 -0 -0 -0 -0 -0 -0 -0 -0 -0 -0 -0 -0 -0 -0 -0 -0 -0 -0 -0 -0 -0 -0 -0 -0 -0 -0 -0 -0 -0 -0 -0 -0 -0 -0 -0 -0 -0 -0 -0 -0 -0 -0 -0 -0 -0 -0 -0 -0 -0 -0 -0
-0 -0 -0 -0 -0 -0 -0 -0 -0 -0 -0 -0 -0 -0 -0 -0 -0 -0 -0 -0 -0 -0 -0 -0 -0 -0 -0 -0 -0 -0 -0 -0 -0 -0 -0 -0 -0 -0 -0 -0 -0 -0 -0 -0 -0 -0 -0 -0 -0 -0 -0 -0 -0 -0
-0 -0 -0 -0 -0 -0 -0 -0 -0 -0 -0 -0 -0 -0 -0 -0 -0 -0 -0 -0 -0 -0 -0 -0 -0 -0 -0 -0 -0 -0 -0 -0 -0 -0 -0 -0 -0 -0 -0 -0 -0 -0 -0 -0 -0 -0 -0 -0 -0 -0 -0 -0 -0 -0
-0 -0 -0 -0 -0 -0 -0 -0 -0 -0 -0 -0 -0 -0 -0 -0 -0 -0 -0 -0 -0 -0 -0 -0 -0 -0 -0 -0 -0 -0 -0 -0 -0 -0 -0 -0 -0 -0 -0 -0 -0 -0 -0 -0 -0 -0 -0 -0 -0 -0 -0 -0 -0 -0
-0 -0 -0 -0 -0 -0 -0 -0 -0 -0 -0 -0 -0 -0 -0 -0 -0 -0 -0 -0 -0 -0 -0 -0 -0 -0 -0 -0 -0 -0 -0 -0 -0 -0 -0 -0 -0 -0 -0 -0 -0 -0 -0 -0 -0 -1 -0 -0 -0 -0 -0 -0 -0 -0
-0 -0 -0 -0 -0 -0 -0 -0 -0 -0 -0 -0 -0 -0 -0 -0 -0 -0 -0 -0 -0 -0 -0 -0 -0 -0 -0 -0 -0 -0 -0 -0 -0 -0 -0 -0 -0 -0 -0 -0 -0 -0 -0 -0 -0 -0 -0 -0 -0 -0 -0 -0 -0 -0
-0 -0 -0 -0 -0 -0 -0 -0 -0 -0 -0 -0 -0 -0 -0 -0 -0 -0 -0 -0 -0 -0 -0 -0 -0 -0 -0 -0 -0 -0 -0 -0 -0 -0 -0 -0 -0 -0 -0 -0 -0 -0 -0 -0 -0 -0 -0 -0 -0 -0 -0 -0 -0 -0
-0 -0 -0 -0 -0 -0 -0 -0 -0 -0 -0 -0 -0 -0 -0 -0 -0 -0 -0 -0 -0 -0 -0 -0 -0 -0 -0 -0 -0 -0 -0 -0 -1 -0 -0 -0 -0 -0 -0 -0 -0 -0 -0 -0 -0 -0 -0 -0 -0 -0 -0 -0 -0 -0
Wind_Speed
26 26 26 25 27 24 25 24 23 23 22 20 20 20 22 21 22 13 2 5 9 3 2 3 4 6 4 6 5 5 4 3 3 4 4 4 4 5 3 4 8 7 7 4 4 5 10 2 2 2 4 5 7 6
29 27 27 27 28 27 27 25 25 24 23 22 22 21 23 21 21 16 3 3 3 2 2 3 1 4 3 3 1 6 0 5 4 3 3 2 3 1 4 4 4 4 3 3 2 2 1 3 5 4 5 6 5 6
28 27 28 28 27 28 28 27 26 25 24 24 24 23 24 23 21 18 4 6 5 4 3 3 3 3 1 2 4 3 0 2 2 2 1 2 4 0 3 5 6 3 3 2 2 3 5 4 4 4 4 5 5 5
26 28 29 29 29 29 29 29 28 28 26 25 26 24 23 23 21 14 5 3 4 5 3 3 4 4 3 4 5 4 4 4 4 3 1 2 2 1 2 1 0 2 5 4 3 6 5 4 5 7 5 4 2 1
26 28 30 31 30 32 30 31 32 30 28 27 25 24 24 18 25 12 6 2 2 4 4 3 5 2 1 4 7 8 6 4 2 2 2 2 1 1 2 2 4 5 5 4 4 0 4 2 6 6 5 2 2 2
26 28 27 31 31 35 40 40 36 30 25 24 26 25 25 32 30 6 3 2 3 5 6 5 1 3 1 3 5 5 5 3 2 1 1 1 2 0 3 4 3 4 4 3 2 4 4 4 4 4 2 3 3 2
20 21 29 43 38 27 28 25 27 23 15 21 33 29 24 19 6 4 4 8 12 4 4 5 4 1 2 4 1 2 1 2 1 1 2 2 3 3 2 4 3 4 5 5 5 3 2 3 1 4 4 5 5 5
22 14 7 25 25 30 32 34 38 37 37 35 35 32 28 20 12 8 6 9 3 4 3 3 3 3 2 2 3 1 2 2 0 1 0 2 2 2 4 5 4 6 6 5 6 4 2 2 3 4 4 4 5 6
3 10 16 26 29 34 36 34 35 37 36 33 29 23 8 7 4 2 4 2 2 4 3 2 6 4 2 2 2 1 1 2 1 1 2 2 3 5 4 4 6 5 4 5 5 4 5 4 5 5 5 6 6 7
20 22 23 23 26 29 31 32 32 32 30 24 5 5 4 2 2 4 2 3 4 2 3 3 2 3 1 3 2 3 1 1 2 3 3 2 4 3 6 6 8 7 6 5 3 3 4 5 5 6 7 7 7 8
21 22 22 24 24 26 28 27 24 19 7 3 4 4 2 2 2 2 3 4 1 3 2 2 3 4 2 2 3 2 2 1 1 2 2 3 3 3 2 7 5 5 4 1 2 3 4 6 7 8 11 10 10 11
21 21 22 23 22 20 16 10 9 6 3 6 11 6 2 3 4 7 1 1 1 3 2 2 2 2 2 2 3 1 2 3 2 1 2 4 2 4 4 4 3 3 2 2 3 5 7 8 7 8 10 12 12 13
22 22 22 20 17 14 16 21 22 16 3 3 5 5 5 3 6 4 4 0 2 2 3 3 2 3 1 3 3 2 3 3 2 2 4 5 3 4 4 3 2 1 2 3 6 6 7 7 9 8 11 11 13 13
22 22 21 18 18 20 17 12 10 6 6 5 4 6 3 2 3 3 2 3 1 3 2 3 2 3 2 4 1 5 1 2 1 1 6 4 5 5 4 3 1 4 5 6 8 7 8 9 11 12 11 11 12 13
24 22 20 18 16 14 13 12 11 5 4 5 5 4 4 2 3 2 1 2 2 2 3 2 3 3 2 4 1 4 4 3 6 6 2 2 6 4 1 2 4 4 5 6 6 7 9 9 10 13 12 11 12 13
24 18 11 14 12 9 6 6 6 4 5 5 7 4 1 3 3 3 4 3 3 1 1 3 3 4 1 4 3 5 4 6 4 0 1 3 2 2 3 4 5 5 6 7 6 8 10 11 11 13 14 13 13 14
14 4 7 9 10 15 17 5 4 7 5 5 4 3 2 4 4 3 3 2 2 1 2 3 5 5 1 3 2 3 5 2 1 3 2 2 2 4 4 6 9 8 8 7 6 7 11 10 9 11 14 14 13 14
6 4 7 8 4 6 4 6 5 5 6 3 3 3 3 4 3 3 3 3 3 2 2 2 4 3 4 4 3 1 2 1 2 3 3 5 5 5 6 10 9 8 9 10 9 10 10 11 11 10 12 12 12 9
9 9 12 12 7 5 5 6 4 5 4 2 3 3 3 4 4 3 3 4 3 1 4 3 3 2 3 1 1 2 2 1 5 6 6 6 7 8 9 5 6 9 10 10 9 9 9 11 11 10 10 8 7 6
16 19 12 17 8 5 6 4 3 5 3 2 3 3 3 3 2 3 4 4 2 2 4 1 2 1 1 1 1 3 4 3 5 9 10 6 3 4 6 6 7 9 10 10 8 14 8 8 6 7 7 7 6 5
8 8 11 6 5 7 5 3 4 3 2 3 1 2 1 2 3 3 3 3 4 1 1 2 1 1 1 4 3 4 6 5 7 7 10 11 6 6 7 7 8 7 7 7 8 9 10 7 7 7 6 4 4 4
2 8 4 5 6 5 5 4 2 0 3 1 2 2 2 2 2 2 3 3 0 1 1 0 2 2 6 6 7 6 8 9 9 9 14 12 7 5 6 6 6 7 7 7 8 8 8 7 7 5 3 3 4 5
5 4 5 6 7 7 3 1 4 5 4 1 2 3 3 2 1 2 1 1 2 2 1 2 3 4 7 9 9 9 7 8 7 7 7 6 7 7 7 7 6 7 8 8 6 7 7 11 8 3 3 3 2 1
8 7 6 4 4 1 1 4 2 3 3 4 3 2 3 2 3 3 0 0 1 1 2 4 4 7 7 7 6 7 7 5 7 7 6 6 6 7 5 6 6 7 8 8 7 6 6 3 5 2 2 2 3 3
9 8 6 5 3 6 5 4 5 5 2 2 3 3 3 2 3 2 0 1 2 2 4 6 6 6 7 8 7 7 8 6 6 8 7 5 6 6 6 6 6 6 6 5 4 3 2 1 2 2 2 3 4 5
7 5 4 2 3 4 1 3 2 0 2 3 1 2 2 2 4 1 1 2 3 4 7 7 8 8 8 6 9 9 9 7 7 8 8 5 4 4 6 6 6 5 1 4 3 1 1 1 2 3 3 7 13 8
5 4 3 1 1 1 3 2 2 3 3 2 2 3 3 3 1 1 1 1 3 6 6 6 6 7 8 9 9 8 8 8 7 7 7 5 3 4 5 6 6 3 4 2 2 4 5 6 7 8 9 9 9 9
2 4 3 3 3 1 3 2 2 2 1 2 1 3 2 1 2 2 2 3 6 7 7 6 6 6 7 8 8 8 8 7 8 6 2 1 2 3 5 4 3 1 2 3 5 5 6 7 8 9 10 10 9 9
3 3 2 4 3 4 3 2 1 2 2 2 1 2 2 2 1 2 3 6 6 5 6 7 8 7 7 7 6 6 6 5 6 6 6 4 3 3 6 3 3 3 3 5 14 12 12 10 10 10 11 10 9 10
3 2 3 2 3 2 1 1 1 1 1 1 2 2 2 1 1 1 4 6 6 6 7 7 7 7 7 8 9 10 5 3 4 3 3 3 4 4 4 5 5 4 4 6 8 12 19 13 15 11 11 9 9 11
2 2 3 3 2 1 0 1 2 2 1 1 1 1 2 2 2 1 3 6 6 6 6 7 8 7 7 9 8 9 7 4 5 6 4 3 4 5 5 6 6 6 6 7 8 9 9 10 10 12 13 14 15 14
3 3 2 2 2 3 2 2 1 1 2 2 2 1 3 2 1 2 4 6 7 7 10 9 7 8 10 9 8 7 15 7 2 3 5 4 5 5 6 6 6 6 7 9 10 9 11 12 11 12 13 14 14 14
2 2 2 2 4 4 3 3 4 2 3 2 2 1 1 2 2 2 2 4 5 7 8 9 8 7 9 9 9 9 13 9 11 13 13 12 12 10 6 6 6 7 10 10 10 11 12 15 13 13 13 13 13 12
Wind_Direction
267 264 258 257 258 261 264 265 263 258 253 251 245 242 245 242 238 218 199 186 206 176 173 182 169 163 174 171 174 136 123 165 161 217 220 192 231 193 274 226 161 167 179 199 203 249 257 4 74 207 133 88 103 91
268 264 262 259 258 262 262 261 260 258 250 248 248 245 250 245 231 212 185 162 104 110 95 31 349 33 35 15 117 206 278 138 187 199 200 196 197 169 209 234 34 189 201 197 212 197 131 35 101 74 122 129 123 127
263 262 262 262 264 263 262 261 260 257 250 248 244 247 248 238 233 215 130 147 87 138 60 209 205 168 119 338 323 204 247 61 108 35 100 67 234 210 199 243 175 198 118 229 69 107 151 137 126 88 84 117 109 78
263 265 267 268 267 262 260 258 257 253 249 244 245 242 243 240 243 163 141 152 130 116 155 172 175 128 168 185 220 47 91 55 53 59 151 176 217 162 274 257 201 150 126 195 238 149 158 184 193 152 130 88 94 135
267 269 269 269 270 262 253 260 260 247 246 242 241 245 240 239 135 102 92 84 83 172 116 95 111 7 273 199 169 151 142 129 139 160 196 208 111 254 53 358 248 175 184 184 217 52 149 50 174 133 134 190 268 128
268 272 276 280 270 273 266 258 243 235 239 246 249 252 150 143 134 127 126 12 112 82 123 154 74 120 75 112 108 126 139 133 171 173 141 121 308 97 207 229 186 125 89 78 85 70 83 75 42 36 1 264 305 237
283 287 285 282 265 247 239 232 217 223 219 133 111 112 112 94 68 72 129 143 158 147 92 115 129 133 110 125 52 87 35 98 114 101 202 209 191 169 254 224 152 126 115 107 97 113 198 197 127 26 7 324 303 284
301 278 42 80 84 96 98 101 108 108 105 102 102 97 89 85 78 47 16 90 107 92 108 122 96 128 238 156 114 306 116 124 277 189 183 224 111 216 247 247 106 116 129 132 115 62 38 328 323 297 285 293 288 276
344 119 95 89 84 83 90 98 105 107 107 104 102 99 69 42 65 105 168 66 32 99 107 153 148 141 180 92 96 62 7 149 125 217 217 145 189 221 221 162 137 141 115 93 48 337 300 286 294 304 299 288 273 269
100 96 101 107 108 107 108 109 110 113 120 126 74 58 68 59 132 144 48 63 27 17 20 75 102 114 150 150 143 119 242 201 189 205 100 215 254 220 122 72 100 97 92 88 67 355 2 315 295 290 287 286 278 281
114 110 107 105 104 107 110 114 118 122 122 52 72 68 90 218 152 45 71 75 339 53 38 43 60 125 2 132 117 24 171 101 122 224 192 250 250 93 126 104 100 101 109 115 187 244 270 261 283 292 291 284 281 281
116 112 110 108 103 103 100 86 77 60 23 95 109 100 94 37 45 81 32 19 45 95 62 88 60 67 79 330 97 248 126 63 236 39 53 262 263 136 119 133 136 131 151 248 267 265 269 266 265 268 274 280 279 279
118 117 113 107 102 88 84 90 97 106 91 68 58 62 57 313 61 112 152 32 119 138 161 156 102 113 47 52 60 101 95 203 71 42 231 228 162 151 151 149 196 185 258 259 267 257 268 269 272 265 272 272 277 276
117 110 105 98 97 99 90 67 53 43 57 62 73 43 76 26 53 51 42 72 46 91 135 103 94 108 150 54 125 96 120 61 336 263 242 234 176 165 165 177 127 274 256 260 265 268 270 273 275 274 272 274 276 273
107 102 101 95 86 79 71 60 50 40 55 66 55 62 56 135 45 50 9 95 358 68 93 67 42 98 47 79 31 79 32 264 200 227 232 161 127 119 133 293 277 273 269 267 261 269 274 272 274 280 279 275 270 272
95 81 77 83 76 69 66 55 34 66 49 58 43 67 338 85 91 97 92 99 327 10 322 50 103 59 44 114 80 211 151 224 246 136 348 66 59 348 310 297 283 256 257 264 260 262 274 278 278 280 287 281 274 269
73 61 93 73 65 55 38 62 48 46 75 48 47 10 7 56 69 45 21 48 294 20 88 86 73 200 69 60 281 203 200 238 342 340 346 320 257 263 259 273 284 284 282 274 270 268 275 279 281 281 280 279 275 270
67 69 59 43 51 54 41 29 69 67 66 16 76 61 45 36 103 83 82 25 14 59 46 179 125 93 183 182 251 313 25 291 241 247 253 266 259 254 261 274 282 282 283 284 277 277 276 276 277 276 278 280 280 282
79 58 46 44 66 81 63 18 45 87 55 39 56 19 44 81 64 76 81 54 54 0 95 42 84 195 239 64 78 318 317 288 294 290 274 265 259 259 269 263 266 276 273 275 280 285 282 275 269 273 275 277 287 287
66 44 38 40 47 70 58 5 12 75 65 56 34 28 27 39 314 63 48 9 10 38 36 66 232 39 51 338 317 260 275 279 293 292 287 284 272 314 293 282 283 284 282 279 275 283 287 280 274 282 285 281 300 297
36 1 24 54 47 57 79 2 44 33 72 77 297 357 67 5 34 26 18 323 41 97 358 41 25 324 300 253 246 259 273 268 265 263 283 293 289 272 277 273 272 277 280 287 286 286 298 286 287 290 283 296 295 277
352 9 55 29 75 50 75 359 69 31 64 144 54 354 41 46 17 353 291 36 137 252 131 305 289 294 308 301 299 286 287 284 278 275 285 289 289 284 278 273 288 283 277 275 276 279 282 283 284 283 305 290 334 332
23 37 43 29 67 46 297 329 66 2 76 315 23 57 10 26 261 351 31 211 252 245 240 257 267 263 283 291 290 287 277 277 281 279 280 279 276 277 278 275 263 270 275 276 272 274 279 285 300 314 293 315 319 4
32 52 50 48 53 66 14 20 38 59 36 30 47 44 349 299 318 49 44 239 271 274 2 313 309 310 307 299 297 296 296 285 285 280 272 273 275 278 267 271 269 266 263 270 271 271 271 275 322 318 328 7 37 57
66 344 59 3 340 53 40 17 357 46 58 336 57 2 316 360 45 39 108 344 350 350 330 326 316 306 297 294 296 301 300 289 289 291 286 265 268 276 277 270 273 275 274 268 276 279 292 318 335 15 46 72 81 77
70 312 70 351 335 79 343 62 40 348 67 33 17 238 21 54 57 316 26 352 335 325 327 321 315 311 305 300 303 309 308 304 292 282 286 265 253 263 287 302 304 305 325 288 291 319 57 3 49 57 66 97 97 83
69 341 344 18 325 68 50 38 17 83 60 44 312 5 57 59 311 57 35 57 318 317 310 301 297 294 295 303 301 298 297 294 292 288 282 265 255 274 286 281 286 295 302 328 69 85 88 83 81 78 77 69 67 75
113 23 80 302 41 22 117 45 61 66 333 313 41 32 121 30 23 356 349 337 317 311 303 298 296 296 300 301 299 301 306 316 315 306 276 277 307 306 319 333 344 68 74 82 80 76 81 84 84 82 80 78 73 69
46 342 62 16 8 44 55 87 111 53 4 333 349 4 37 39 33 343 320 320 320 314 320 327 326 324 317 319 315 314 314 329 345 355 14 11 352 338 342 356 15 31 50 88 102 100 96 94 92 87 85 83 83 84
340 333 65 47 78 39 268 46 349 329 302 345 323 284 241 193 69 306 325 338 341 333 319 309 313 323 326 331 326 332 332 5 353 347 348 359 345 333 4 31 36 42 59 77 84 90 89 83 88 83 80 80 82 84
317 341 51 44 103 271 301 321 295 252 23 352 327 262 307 324 300 90 359 338 327 320 329 343 336 333 338 337 337 332 340 18 8 5 36 11 15 35 42 48 55 60 68 79 86 88 92 88 87 88 87 88 90 90
14 59 82 49 308 294 24 37 339 52 326 41 336 325 314 265 71 19 359 352 347 350 342 341 331 324 323 323 328 334 346 338 30 19 27 36 42 46 53 57 60 68 77 80 82 84 86 88 88 89 87 87 88 90
34 37 19 51 14 6 334 39 14 7 19 36 355 347 342 345 353 318 345 12 335 316 319 319 308 302 304 318 344 344 355 352 30 66 73 88 93 86 73 68 73 78 82 83 83 88 87 91 88 87 85 84 82 80